Location: Madrid
(40.4000°N, 3.6830°W)
Time: 12:35:12
(UTC+01:00)

ISS - Pass Details

Date: 16 March 2019
Orbit: 408 x 411 km, 51.6° (Epoch: 24 March)

Event Time Altitude Azimuth Distance (km) Brightness Sun altitude
Exits shadow 06:20:52 24° 275° (W) 895 -2.7 -13.1°
Maximum altitude 06:22:19 38° 223° (SW) 643 -3.2 -12.8°
Drops below altitude 10° 06:25:23 10° 154° (SSE) 1,463 -0.8 -12.2°
Sets 06:27:32 0° 146° (SE) 2,320 0.4 -11.8°
